Wind_Speed
7 5 16 6 11 9 4 1 2 5 8 5 7 10 11 26 24 29 38 43 48 52 55 55 55 56 58 56 52 52 49 46
16 6 8 10 8 4 2 6 6 4 5 6 8 14 13 9 20 33 40 42 47 49 53 59 59 57 56 56 55 53 52 51
7 10 20 3 6 3 6 6 6 0 7 8 10 11 13 16 30 37 39 43 49 51 53 57 56 58 57 57 57 56 56 54
6 2 5 21 11 8 6 11 4 4 9 5 10 12 11 17 29 36 35 39 46 50 50 49 54 54 56 55 55 57 56 55
4 5 1 4 13 7 13 3 16 8 9 10 5 7 15 19 25 25 27 31 38 39 41 47 51 52 54 55 55 55 55 56
3 1 3 6 5 8 16 12 18 19 14 6 6 8 8 19 27 27 24 24 26 35 41 47 50 53 53 54 52 51 52 53
2 12 7 11 14 12 10 22 15 21 24 11 9 10 17 34 27 24 24 17 18 23 32 42 48 49 49 49 50 47 46 50
4 9 10 12 13 14 14 10 10 21 11 9 17 26 13 22 26 28 26 23 19 22 29 38 44 46 46 45 45 45 45 46
4 6 12 15 9 15 9 8 12 17 11 8 7 10 17 32 34 35 36 37 33 28 29 37 42 46 45 44 44 46 45 46
4 4 7 4 9 9 14 17 17 15 8 13 15 30 38 41 40 39 39 41 39 32 30 31 40 43 46 43 45 42 45 47
4 6 13 19 4 5 0 8 11 16 12 9 30 23 18 26 31 35 33 33 19 22 19 28 34 37 45 45 43 42 46 48
1 6 7 3 1 8 4 5 6 10 17 15 10 5 6 30 30 32 30 33 28 24 24 25 31 34 46 48 51 51 50 50
11 6 6 5 6 6 5 5 19 17 21 18 9 20 27 15 8 15 21 24 24 21 21 24 31 36 41 44 48 50 47 46
8 6 15 1 1 2 5 18 23 21 22 19 16 18 14 9 11 10 8 6 7 16 16 13 15 16 25 33 39 41 41 43
9 7 8 6 7 7 7 15 17 17 13 15 23 20 19 19 17 16 16 16 15 14 10 3 8 10 15 23 25 27 30 35
8 11 10 6 6 3 6 12 14 5 2 15 30 29 27 24 23 22 21 21 19 16 15 13 10 7 3 12 18 21 25 28
10 26 12 9 7 5 7 3 6 13 15 19 29 28 29 27 25 22 22 20 18 17 16 15 14 13 12 12 13 13 16 24
8 14 8 5 9 12 15 9 8 14 18 20 24 28 27 27 25 22 19 16 14 13 13 15 16 18 20 21 23 24 24 20
7 26 23 16 14 17 21 15 14 15 14 19 21 23 27 28 24 21 19 17 15 13 11 11 14 16 18 21 26 29 32 35
Wind_Direction
185 156 166 189 198 171 80 301 29 218 301 319 191 219 219 228 228 219 216 217 221 221 225 229 228 227 229 231 232 232 230 230
203 127 194 159 162 127 23 194 246 273 265 220 202 200 214 224 213 223 224 219 221 221 223 228 234 232 231 232 233 233 233 232
116 199 197 144 182 100 150 161 191 73 254 206 209 220 212 215 216 224 222 224 227 225 225 230 231 232 234 233 233 233 236 237
201 216 243 213 196 153 173 223 241 173 244 211 227 209 194 226 234 237 240 239 238 235 225 220 227 227 234 236 236 236 236 237
54 317 247 183 229 186 217 96 217 201 248 244 218 198 229 238 239 229 238 243 241 229 220 222 228 229 233 236 239 238 236 237
230 235 353 307 312 204 210 225 230 230 254 283 275 245 244 236 243 240 239 251 246 237 229 226 227 230 230 236 237 236 236 238
245 286 258 246 257 266 247 225 221 238 243 238 234 232 233 243 242 244 253 237 241 238 231 228 223 227 232 235 233 234 235 238
280 272 306 288 267 257 246 236 263 258 256 200 216 230 249 251 247 242 245 245 254 253 236 225 225 225 227 231 235 233 234 239
264 313 318 293 252 238 226 195 216 243 232 241 227 218 224 237 242 245 254 264 264 254 247 230 228 230 228 230 234 236 236 236
245 335 249 260 295 269 251 223 211 238 213 210 227 233 242 241 241 250 256 258 259 254 251 244 236 235 235 234 236 238 241 235
202 211 294 307 334 34 355 283 236 207 220 217 225 249 262 249 252 251 253 250 256 232 257 255 243 240 241 237 242 241 239 239
162 213 223 221 218 295 173 255 304 230 208 211 156 207 254 263 258 251 249 246 254 259 259 255 247 245 240 243 243 247 247 245
235 260 280 251 294 339 203 289 322 311 290 228 190 221 236 264 265 235 240 244 249 253 252 244 241 240 241 240 241 249 250 244
214 236 244 317 59 176 324 310 307 301 288 236 195 188 202 173 146 151 145 140 204 223 229 238 248 254 244 247 250 248 248 249
198 214 221 181 234 260 311 316 306 299 308 195 170 139 135 126 119 108 98 94 93 95 94 131 236 240 227 237 248 256 257 255
297 236 224 253 231 252 14 328 314 324 137 140 129 127 118 110 102 98 91 85 83 81 78 76 66 55 312 274 273 270 265 267
237 257 198 197 204 198 97 39 52 90 111 115 114 107 105 100 93 85 82 77 71 63 51 41 31 13 354 331 317 306 289 270
235 245 212 202 182 175 124 96 86 93 96 93 96 99 95 86 84 80 73 65 53 44 31 16 359 347 336 324 314 307 298 281
255 268 238 166 150 148 124 114 96 94 93 92 90 92 91 89 83 81 74 64 52 39 16 350 331 320 316 308 301 295 289 282
Height
1412 1415 1424 1448 1454 1449 1476 1476 1484 1468 1443 1426 1421 1423 1424 1423 1429 1433 1437 1440 1444 1449 1455 1459 1465 1469 1474 1481 1487 1492 1498 1504
1405 1411 1417 1426 1433 1462 1480 1482 1488 1467 1452 1441 1426 1419 1417 1420 1421 1422 1425 1431 1434 1439 1446 1450 1453 1459 1466 1473 1477 1483 1490 1496
1408 1412 1412 1427 1433 1442 1446 1467 1475 1482 1450 1417 1413 1412 1410 1407 1408 1410 1415 1419 1423 1427 1433 1438 1446 1450 1454 1462 1469 1476 1482 1488
1414 1400 1399 1400 1412 1429 1444 1456 1460 1462 1432 1399 1396 1394 1400 1401 1403 1404 1407 1409 1412 1416 1422 1430 1434 1443 1444 1451 1458 1463 1470 1477
1422 1412 1401 1409 1406 1412 1412 1432 1434 1449 1417 1394 1396 1398 1398 1399 1398 1399 1402 1404 1406 1412 1417 1419 1425 1432 1437 1442 1446 1454 1460 1467
1441 1433 1434 1425 1411 1407 1411 1421 1416 1412 1410 1402 1396 1397 1394 1394 1393 1394 1397 1398 1400 1404 1407 1411 1414 1419 1426 1433 1440 1447 1452 1457
1436 1429 1424 1419 1415 1411 1413 1404 1409 1399 1399 1400 1398 1397 1390 1385 1387 1390 1391 1392 1394 1395 1399 1403 1408 1413 1419 1423 1431 1437 1443 1448
1438 1424 1415 1417 1409 1404 1402 1403 1402 1396 1396 1384 1383 1384 1386 1385 1384 1384 1384 1386 1388 1390 1393 1396 1400 1404 1409 1415 1420 1427 1431 1434
1441 1429 1421 1406 1391 1390 1390 1387 1390 1392 1386 1381 1378 1378 1377 1377 1378 1379 1379 1380 1383 1384 1386 1389 1392 1395 1401 1406 1411 1414 1419 1425
1443 1434 1427 1389 1378 1374 1371 1367 1369 1370 1372 1370 1367 1364 1364 1365 1368 1370 1373 1374 1374 1376 1378 1380 1385 1391 1396 1401 1403 1407 1411 1416
1436 1433 1397 1387 1378 1382 1388 1372 1357 1359 1362 1362 1360 1358 1355 1359 1361 1363 1364 1366 1367 1370 1373 1375 1378 1383 1387 1393 1397 1400 1402 1405
1434 1422 1409 1376 1376 1374 1376 1381 1353 1352 1349 1350 1356 1371 1360 1350 1352 1353 1357 1361 1365 1368 1370 1370 1374 1377 1382 1386 1388 1390 1394 1396
1427 1416 1391 1372 1370 1365 1376 1366 1356 1358 1353 1343 1347 1344 1346 1345 1346 1348 1351 1354 1358 1362 1364 1366 1367 1370 1373 1375 1377 1381 1385 1390
1425 1412 1398 1370 1367 1371 1364 1357 1357 1349 1343 1340 1336 1338 1342 1342 1344 1346 1348 1349 1351 1355 1358 1361 1363 1366 1369 1371 1374 1378 1381 1383
1400 1384 1368 1364 1365 1361 1361 1359 1352 1346 1337 1333 1334 1335 1339 1341 1344 1346 1348 1349 1352 1353 1356 1358 1360 1363 1366 1369 1372 1375 1378 1380
1393 1368 1364 1362 1361 1359 1353 1355 1350 1343 1338 1335 1331 1334 1336 1340 1342 1345 1347 1349 1351 1352 1354 1357 1359 1362 1363 1366 1368 1370 1373 1375
1376 1369 1359 1360 1357 1355 1351 1353 1350 1344 1344 1341 1333 1336 1336 1338 1342 1346 1349 1350 1349 1349 1353 1356 1357 1358 1360 1362 1363 1364 1366 1368
1364 1357 1356 1354 1353 1351 1347 1351 1351 1348 1348 1343 1340 1336 1338 1339 1342 1344 1346 1347 1347 1350 1352 1354 1355 1356 1356 1356 1357 1357 1359 1360
1353 1358 1353 1354 1352 1350 1344 1350 1352 1351 1353 1348 1345 1343 1340 1341 1345 1347 1348 1348 1349 1350 1351 1352 1353 1354 1354 1352 1351 1349 1348 1348